FREGAT DEB (49271 NORAD) Tracking and Keplerian Element Data

This shows tracking and keplerian element data for the satellite.

Feedback or suggestion? Click here.




ElementValue
Catalog49271
NameFREGAT DEB
Epoch Orbit1817
Epoch Day287.34744935
Epoch Year2021
RAAN169.685
Inclination51.6293
Eccentricity0.0889029
Argument of Perigee283.7986
Mean Anonmoly66.5543
Mean Motion11.66366735
Decay Rate7.578E-05
L11 49271U 11037PF 21287.34744935 .00007578 00000-0 51756-1 0 9996
L22 49271 51.6293 169.6850 0889029 283.7986 66.5543 11.66366735 18175

Live tracking and technical data element details for FREGAT DEB (NORAD 49271). FREGAT DEB can be tracked NOW for your location showing map with azimuth and elevation plus other details from your city location.

Track the satellite on the map from your city or location and see movement details for azimuth, elevation, latitude, longitude, range, height, and movement on the map or in text.







IsCatalogInMostPopularTable: catalog: 49271, numindb: 4
Update: records affected: 1



GetName: 49271 FREGAT DEB

Hit Count: updated at: Tue, 19 Oct 2021 08:43:05 GMT